Theta_e
314 313 313 314 312 313 312 312 313 314 314 314 315 316 317 317 318 318 319 322 320 321 324 324 324 324 324 324 323 322 320 316 313 320 319 324 322 323 324 324 324 325 324
311 309 308 306 306 306 307 307 309 309 309 310 311 312 312 313 314 314 315 316 318 317 318 319 319 320 318 319 320 318 318 320 318 315 321 319 319 324 323 323 321 321 323
306 305 304 303 303 303 303 304 306 306 306 306 307 307 306 308 310 309 309 309 309 310 312 311 310 312 311 311 313 314 316 318 319 315 315 319 319 320 321 321 320 322 321
305 303 301 301 301 302 302 302 302 302 301 302 302 303 303 303 307 305 304 305 305 306 306 307 308 308 309 310 310 311 311 310 312 311 311 312 315 319 319 318 319 321 319
303 301 300 301 301 300 299 299 299 298 298 298 298 298 299 299 301 301 300 301 301 302 302 302 304 306 308 309 307 307 308 307 307 307 308 309 311 312 313 315 315 316 319
301 300 300 300 299 298 297 296 295 294 294 294 294 294 294 296 297 297 298 298 299 298 297 298 300 301 302 303 305 306 307 306 305 306 306 306 308 309 312 313 313 311 308
298 298 297 296 295 295 294 293 291 291 291 291 291 292 293 294 295 295 296 296 295 295 295 295 296 298 300 300 300 301 302 303 304 304 302 303 304 307 308 308 308 307 306
295 295 294 293 292 291 291 290 289 289 289 289 290 291 292 293 294 294 295 295 295 296 296 296 296 297 297 298 298 298 299 300 302 303 305 305 307 308 309 308 307 308 309
291 291 291 290 289 289 288 288 289 289 289 290 291 292 292 293 294 294 295 295 295 296 297 298 297 297 297 296 297 296 297 298 300 300 300 299 297 297 300 302 301 301 300
289 289 290 289 289 289 288 289 290 290 290 292 293 293 293 294 294 294 294 295 294 294 295 297 298 297 295 295 296 296 295 296 298 299 301 301 300 302 299 302 302 298 299
288 289 289 289 288 290 289 289 289 289 291 292 292 294 294 295 295 294 294 295 294 294 295 296 297 295 294 293 293 296 296 298 298 298 299 300 301 302 302 304 304 302 300
288 288 288 289 290 290 288 288 291 291 291 292 292 293 295 296 296 295 294 294 295 294 294 296 296 294 293 293 293 293 292 294 296 295 296 296 298 299 301 303 305 307 306
287 287 288 289 289 290 290 290 291 292 291 291 292 292 293 296 297 296 295 294 295 295 296 296 294 294 293 293 293 292 292 294 294 293 294 295 297 299 301 302 304 307 308
286 288 288 288 290 291 291 291 291 292 291 292 292 292 293 295 297 297 296 296 296 297 297 297 296 295 294 294 294 294 294 295 294 294 295 296 298 298 298 301 302 303 303
288 288 288 289 289 290 291 291 292 294 293 292 293 294 293 293 293 292 291 293 294 295 294 294 294 295 295 296 296 296 295 295 293 294 294 296 296 297 297 300 300 302 301
287 287 288 288 288 290 291 291 293 292 293 292 292 292 295 292 290 290 291 291 291 290 292 293 294 296 296 297 297 298 299 299 298 297 297 297 297 297 298 299 300 300 301
285 287 288 288 287 288 290 290 290 294 293 292 291 292 291 290 289 290 291 291 292 291 293 296 296 297 298 300 300 301 303 305 305 301 299 299 299 300 298 299 299 302 302
287 288 288 288 287 288 288 289 291 290 288 290 292 291 290 289 289 290 291 293 295 295 297 297 298 301 302 302 303 306 310 308 308 307 302 302 302 302 300 301 302 302 304
287 288 289 288 288 287 287 288 290 290 289 289 291 290 289 288 290 291 291 293 293 296 299 298 298 298 298 299 300 302 306 308 306 306 306 305 304 303 303 304 304 297 299
288 288 288 288 287 288 287 288 288 288 288 288 288 288 288 288 289 290 291 292 294 296 297 296 295 295 295 295 296 298 301 307 310 309 307 307 306 306 306 306 305 304 307
287 287 285 287 287 287 287 287 287 286 286 286 287 288 286 287 288 289 289 291 292 294 294 295 294 293 293 293 293 293 295 298 303 310 308 309 309 308 308 307 307 308 308
287 286 286 286 286 286 286 286 286 286 286 285 286 287 286 287 287 288 288 289 292 293 294 294 293 293 292 291 291 291 290 292 295 300 311 309 309 308 309 309 310 310 308
287 286 286 285 286 285 285 285 285 285 285 285 285 285 285 286 286 287 287 289 290 291 292 293 292 290 291 291 291 290 288 288 290 298 310 313 315 314 314 313 312 311 308
287 286 285 285 285 285 284 284 284 284 284 284 285 285 285 285 285 286 286 287 289 290 291 290 290 288 288 288 288 288 287 287 293 296 309 315 316 313 316 313 311 306 302
286 285 284 284 284 283 283 283 283 283 283 283 284 284 284 284 284 285 286 286 288 288 288 288 289 288 287 287 286 286 285 285 288 288 304 308 313 314 314 311 309 306 304
284 283 283 283 282 282 282 282 282 282 282 282 282 283 283 283 284 284 285 285 286 286 287 287 288 287 286 286 285 285 285 285 287 287 297 301 302 304 310 310 308 307 305
Wind_Speed
13 11 9 2 8 9 8 6 5 5 7 8 8 7 7 7 6 5 5 4 4 4 3 4 3 1 3 3 3 3 4 4 6 8 5 4 5 7 8 6 8 8 8
9 8 6 8 8 9 8 7 7 8 7 8 8 8 9 9 8 6 6 6 6 5 5 4 4 0 1 2 4 4 5 6 4 16 9 6 8 7 9 9 7 8 8
7 9 8 7 9 7 7 7 8 8 8 9 9 9 10 9 8 8 8 8 6 6 5 5 4 3 4 4 4 5 3 5 7 8 8 5 5 4 8 7 8 8 7
8 9 9 7 7 6 5 6 6 5 6 6 6 6 6 7 6 5 7 6 5 5 5 5 6 6 6 5 5 6 6 6 6 7 8 8 7 7 7 8 9 6 7
10 10 8 6 6 6 8 7 6 7 7 8 9 8 7 8 7 8 9 9 8 8 7 7 8 8 13 10 7 7 8 7 7 8 9 8 8 7 8 6 8 7 7
10 8 7 6 6 7 7 7 7 8 8 8 9 9 10 8 12 14 13 9 10 10 11 11 10 15 14 16 16 17 12 10 10 9 10 10 10 8 8 8 8 8 10
8 7 7 8 9 9 9 9 10 10 10 11 11 11 12 11 16 15 16 9 9 10 11 11 10 9 13 11 12 14 15 16 17 14 15 13 13 12 10 11 12 11 12
8 8 7 7 7 8 7 8 8 6 7 8 9 9 9 10 16 16 16 11 9 10 10 11 11 11 10 11 10 10 12 12 12 10 12 12 13 11 9 9 10 10 10
5 4 6 7 6 4 5 5 4 4 6 7 9 10 10 11 14 15 13 10 10 11 11 11 10 10 12 13 11 12 11 11 11 16 17 16 15 14 12 8 10 9 9
7 6 5 5 5 6 7 7 6 7 7 6 8 7 10 10 12 13 12 6 9 7 11 11 14 14 15 15 13 11 11 11 12 12 11 12 13 12 13 10 9 10 10
6 5 5 6 6 6 7 5 7 7 7 8 9 9 10 9 12 15 16 8 7 8 8 9 8 12 13 15 14 10 12 12 13 10 10 8 9 11 10 9 10 10 10
7 7 7 7 5 6 6 5 6 6 7 8 9 9 8 9 11 13 14 15 14 9 10 9 10 13 14 15 14 19 19 15 9 9 9 9 9 10 10 10 11 11 9
6 6 6 6 5 5 6 7 6 6 5 6 6 7 9 8 8 13 14 13 14 10 8 13 18 20 21 17 19 20 16 10 10 10 12 11 10 9 10 9 9 8 9
5 5 6 6 8 7 6 5 5 5 5 6 7 7 7 8 9 10 11 10 12 10 12 10 13 17 21 20 17 14 10 11 11 11 11 10 7 8 9 8 7 5 6
6 6 6 6 7 7 6 4 5 5 5 7 6 7 7 9 11 19 16 10 9 10 11 7 8 8 10 9 10 9 9 9 10 11 10 9 8 7 7 6 7 7 8
6 5 6 5 5 5 6 8 4 8 11 11 10 7 5 12 21 22 21 19 17 10 4 7 10 9 11 11 11 11 8 11 10 9 9 8 7 7 6 5 5 7 7
5 6 5 6 5 5 7 8 10 10 8 10 12 11 12 17 22 20 19 19 11 7 5 9 9 10 11 11 11 10 10 9 9 8 9 8 6 5 6 6 6 6 7
5 7 4 4 5 5 6 6 6 8 11 12 10 13 18 22 21 17 20 14 11 9 8 9 10 10 11 11 10 10 10 10 10 5 6 6 6 6 6 6 6 6 6
4 4 5 4 4 5 4 5 6 7 7 8 9 11 17 22 15 13 15 9 10 10 11 12 11 11 11 11 11 11 12 10 10 10 7 6 6 6 5 5 5 5 6
4 7 5 4 4 5 5 6 7 7 7 7 8 9 12 12 12 12 11 10 10 11 11 12 12 11 12 12 12 12 11 10 9 8 7 6 4 3 3 4 3 1 1
3 4 4 5 6 6 5 6 6 6 6 7 7 9 15 8 9 10 10 11 11 11 12 12 11 11 12 12 12 12 12 11 11 8 6 6 5 4 4 3 2 2 2
3 3 4 5 5 6 6 6 6 6 7 7 8 9 13 8 8 9 9 10 10 10 10 10 10 11 12 12 13 12 12 11 11 10 5 4 4 3 2 3 3 2 4
4 5 6 6 6 6 6 6 6 7 7 8 8 8 9 9 9 10 10 10 10 10 10 10 11 11 12 11 12 12 13 13 11 11 9 4 5 4 3 4 4 4 4
5 6 6 6 6 6 6 7 7 8 8 8 8 8 9 9 10 11 11 10 10 10 10 11 12 16 14 14 13 13 13 14 11 11 13 8 6 5 4 4 4 6 6
6 7 7 7 7 6 6 7 8 8 8 8 8 8 9 9 10 10 10 10 11 10 12 13 12 17 19 22 22 24 22 24 20 17 10 12 11 9 6 5 4 5 6
8 8 7 7 7 7 7 7 8 8 9 8 8 8 9 9 9 10 10 11 10 10 14 10 14 20 22 19 23 24 25 24 21 21 13 12 11 10 7 6 5 3 4
Wind_Direction
87 72 62 64 58 59 61 47 37 31 22 24 14 7 11 10 3 5 356 358 6 340 341 337 322 280 253 252 236 235 227 181 243 286 258 268 272 266 272 245 243 246 259
82 113 83 66 58 58 51 41 30 38 29 31 29 25 13 5 357 0 350 340 326 311 294 279 274 29 340 312 251 233 208 255 233 256 255 247 243 258 260 270 263 250 244
81 84 70 64 66 57 54 45 39 32 25 22 21 19 11 359 3 4 4 357 350 343 347 332 306 286 243 235 220 272 257 244 234 256 273 255 239 266 275 267 258 265 250
86 73 72 67 67 69 63 55 49 36 33 25 13 358 352 343 324 347 339 330 327 322 314 312 310 299 287 285 274 269 263 257 253 258 262 264 260 240 244 257 268 254 268
76 69 57 57 51 41 34 26 18 16 1 353 341 338 330 324 312 337 321 307 302 298 292 289 282 273 277 271 267 262 259 261 259 262 265 261 254 243 238 253 259 273 266
67 61 47 43 33 33 19 9 2 353 348 343 336 331 327 323 325 316 319 309 300 293 290 288 279 282 276 267 262 262 254 255 252 250 254 250 247 251 250 252 268 271 273
60 50 36 27 18 10 4 2 357 347 343 342 337 336 329 322 322 319 320 314 305 295 289 287 286 279 279 278 276 276 269 261 256 260 259 252 257 251 254 255 255 259 262
45 32 19 9 3 360 1 352 337 326 322 315 312 311 310 311 310 308 309 305 294 283 283 285 281 283 278 278 281 274 268 264 257 254 250 253 253 258 253 252 258 262 262
33 11 6 6 359 358 356 329 307 309 332 335 335 325 325 314 310 306 306 309 303 298 293 280 276 281 281 273 275 277 273 271 273 261 256 253 255 258 255 267 261 266 273
4 357 356 359 4 7 354 349 341 340 332 327 315 303 294 292 293 296 304 299 295 288 294 288 274 267 267 271 271 270 267 267 267 270 261 256 253 257 252 239 254 244 248
351 352 1 7 4 10 349 334 332 322 310 312 308 309 305 298 302 305 301 302 289 288 284 285 277 267 276 275 262 267 270 285 277 269 266 260 251 255 253 241 231 230 239
358 8 9 5 360 348 334 329 336 322 317 323 325 318 327 317 307 296 289 286 285 283 281 280 279 272 269 267 276 270 265 264 259 253 254 252 249 250 245 237 238 229 225
6 8 1 354 339 338 338 332 325 329 333 322 325 321 319 318 315 307 293 281 279 273 271 272 277 277 274 271 266 262 262 253 247 244 245 245 241 247 249 244 249 227 211
360 1 353 349 353 346 341 314 314 329 328 325 316 308 312 323 329 332 323 316 298 284 282 282 277 275 269 267 275 268 247 239 232 232 237 240 240 236 238 235 231 221 233
355 354 353 354 345 337 325 306 316 312 289 308 307 318 323 336 329 315 314 314 304 288 299 290 292 294 294 290 276 263 252 240 229 228 230 232 227 220 221 216 219 218 228
348 344 358 347 346 325 333 336 306 268 312 331 324 320 345 325 328 325 319 316 318 320 299 305 303 302 297 297 293 297 273 260 242 223 221 217 219 203 205 191 196 205 215
338 342 346 346 349 343 344 352 339 338 346 337 329 345 354 335 332 325 331 328 322 332 300 314 307 307 305 305 303 301 297 286 266 210 206 200 194 189 177 185 189 190 204
334 352 338 337 344 349 351 345 335 341 341 337 347 350 348 343 333 336 347 346 356 352 331 323 330 336 344 342 338 336 338 352 354 356 165 166 163 157 173 182 177 183 189
352 347 348 340 348 3 354 356 350 343 341 334 340 351 350 346 345 351 351 5 346 350 359 4 356 350 347 345 344 345 344 8 18 27 65 109 126 148 165 171 174 180 186
355 357 359 350 358 11 6 8 1 360 345 347 354 355 346 348 1 359 360 355 355 2 357 2 357 356 357 355 351 350 350 358 22 33 52 70 86 104 133 138 129 135 102
9 4 358 18 23 20 11 13 8 360 351 354 350 352 346 354 354 355 353 357 359 359 359 358 359 1 360 359 358 353 352 355 1 24 33 47 54 74 72 86 95 98 116
24 24 33 32 30 27 20 19 14 4 1 1 353 353 353 8 5 360 358 358 356 357 357 359 3 3 2 359 358 357 357 354 349 350 19 44 62 58 80 104 123 95 93
45 50 48 41 38 26 28 26 21 12 11 8 2 2 4 7 5 2 359 355 356 359 1 3 7 7 6 6 4 2 358 349 337 332 339 17 46 70 87 85 77 71 65
50 50 48 43 35 33 31 25 23 20 20 18 13 12 9 5 4 2 359 355 358 3 4 6 8 12 3 8 6 3 359 350 342 344 351 0 17 43 64 65 65 78 85
51 50 47 42 35 31 29 29 25 22 22 22 19 16 10 9 8 3 2 359 359 4 8 7 8 9 10 9 8 7 2 360 358 349 357 16 27 24 36 60 75 89 109
51 50 46 43 37 32 29 28 26 21 21 18 17 17 13 10 7 4 4 5 3 6 7 9 8 15 15 10 4 3 5 4 1 353 356 10 19 24 26 50 57 69 100